STARLINK-35945

Last updated on Fri Dec 19 2025 00:02:08 GMT+0000 (Coordinated Universal Time)

1 66925U 25286A 25352.58336806 -.01253607 00000+0 -66054-2 0 9995 2 66925 53.1564 21.0808 0000956 75.8079 26.8226 15.82654019 2930
UTC large
Height (km)
Speed (km/s)
/
Latitude / Longitude
Inclination (degrees)
Orbital Period (minutes)
Azimuth
Elevation
Range (km)
Doppler Factor

Next 0 passes for location: London (51.5072 / 0.1276)

Sorry there are no passes over London.